Weather History for Falls City, NE

Change the Weather History Date:

Saturday, August 30, 2014

  Actual Average Record
Temperature  
Mean Temperature 76 °F -  
Max Temperature 88 °F 88 °F 103 °F (1984)
Min Temperature 64 °F 61 °F 45 °F (1992)
Cooling Degree Days 10    
Growing Degree Days 26 (Base 50)    
Moisture  
Dew Point 67 °F    
Average Humidity 80    
Maximum Humidity 100    
Minimum Humidity 51    
Precipitation  
Precipitation 0.00 in - - ()
Sea Level Pressure  
Sea Level Pressure 29.87 in    
Wind  
Wind Speed 4 mph (NW)    
Max Wind Speed 7 mph    
Max Gust Speed -    
Visibility 9 miles    
Events      
Averages and records for this station are not official NWS values.
T = Trace of Precipitation, MM = Missing Value Source: NWS Daily Summary

Daily Weather History Graph

Daily Weather History Graph

Search for Another Location

Airport:

Trip Planner

Search our weather history database for the weather conditions in past years. The results will help you decide how hot, cold, wet, or windy it might be!

Date:

Astronomy

Aug. 30, 2014 Rise Set
Actual Time 6:48 AM CDT 7:56 PM CDT
Civil Twilight 6:20 AM CDT 8:24 PM CDT
Nautical Twilight 5:46 AM CDT 8:58 PM CDT
Astronomical Twilight 5:11 AM CDT 9:32 PM CDT
Moon 11:36 AM CDT (8/30) 10:31 PM CDT (8/30)
Length of Visible Light 14h 04m
Length of Day
13h 08m
Waxing Crescent, 23% of the Moon is Illuminated
Aug 30
Waxing Crescent
Sep 2
First Quarter
Sep 8
Full
Sep 15
Last Quarter
Sep 24
New

Hourly Weather History & Observations

Time (CDT) Temp. Heat Index Dew Point Humidity Pressure Visibility Wind Dir Wind Speed Gust Speed Precip Events Conditions
12:53 AM 69.1 °F - 66.9 °F 93% 29.83 in 10.0 mi WNW 3.5 mph - N/A   Partly Cloudy
1:53 AM 68.0 °F - 66.0 °F 93% 29.83 in 10.0 mi SSW 4.6 mph - N/A   Clear
2:53 AM 66.2 °F - 64.4 °F 94% 29.87 in 10.0 mi NNW 4.6 mph - N/A   Clear
3:53 AM 66.0 °F - 64.9 °F 96% 29.86 in 9.0 mi NW 3.5 mph - N/A   Clear
4:16 AM 66.0 °F - 64.9 °F 96% 29.87 in 2.0 mi Calm Calm - N/A   Clear
4:25 AM 66.0 °F - 64.9 °F 96% 29.88 in 1.2 mi WNW 3.5 mph - N/A   Clear
4:32 AM 64.9 °F - 64.9 °F 100% 29.88 in 3.0 mi NW 6.9 mph - N/A   Clear
4:53 AM 66.0 °F - 64.9 °F 96% 29.86 in 10.0 mi WNW 5.8 mph - N/A   Clear
5:53 AM 66.0 °F - 64.9 °F 96% 29.87 in 10.0 mi West 5.8 mph - N/A   Clear
6:53 AM 66.0 °F - 64.9 °F 96% 29.89 in 10.0 mi West 5.8 mph - N/A   Clear
7:53 AM 68.0 °F - 66.0 °F 93% 29.90 in 10.0 mi West 5.8 mph - N/A   Clear
8:53 AM 70.0 °F - 66.0 °F 87% 29.91 in 10.0 mi NW 6.9 mph - N/A   Clear
9:53 AM 73.9 °F - 66.9 °F 79% 29.92 in 10.0 mi NW 6.9 mph - N/A   Clear
10:53 AM 78.1 °F - 68.0 °F 71% 29.92 in 10.0 mi North 6.9 mph - N/A   Clear
11:53 AM 82.0 °F 85.9 °F 70.0 °F 67% 29.91 in 10.0 mi North 3.5 mph - N/A   Clear
12:53 PM 82.9 °F 86.5 °F 69.1 °F 63% 29.90 in 10.0 mi Calm Calm - N/A   Scattered Clouds
1:53 PM 86.0 °F 88.8 °F 66.9 °F 53% 29.89 in 10.0 mi Calm Calm - N/A   Clear
2:53 PM 86.0 °F 88.8 °F 66.9 °F 53% 29.88 in 10.0 mi Variable 3.5 mph - N/A   Clear
3:53 PM 87.1 °F 89.9 °F 66.9 °F 51% 29.86 in 10.0 mi Calm Calm - N/A   Scattered Clouds
4:53 PM 87.1 °F 89.9 °F 66.9 °F 51% 29.84 in 10.0 mi NNE 3.5 mph - N/A   Clear
5:53 PM 86.0 °F 89.4 °F 68.0 °F 55% 29.84 in 10.0 mi East 4.6 mph - N/A   Clear
6:53 PM 82.9 °F 87.5 °F 71.1 °F 67% 29.84 in 10.0 mi East 4.6 mph - N/A   Clear
7:53 PM 77.0 °F - 69.1 °F 76% 29.85 in 10.0 mi ESE 5.8 mph - N/A   Clear
8:53 PM 73.9 °F - 68.0 °F 82% 29.86 in 10.0 mi SE 5.8 mph - N/A   Clear
9:53 PM 71.6 °F - 68.0 °F 88% 29.87 in 10.0 mi SE 3.5 mph - N/A   Clear
10:53 PM 71.1 °F - 66.9 °F 87% 29.86 in 10.0 mi SE 3.5 mph - N/A   Clear
11:53 PM 69.1 °F - 66.0 °F 90% 29.85 in 10.0 mi SSE 5.8 mph - N/A   Clear